TimeCDT,TemperatureF,Dew PointF,Humidity,Sea Level PressureIn,VisibilityMPH,Wind Direction,Wind SpeedMPH,Gust SpeedMPH,PrecipitationIn,Events,Conditions,WindDirDegrees,DateUTC
12:53 AM,78.1,66.0,66,29.81,10.0,South,19.6,25.3,N/A,,Overcast,170,2013-05-28 05:53:00
1:53 AM,77.0,66.0,69,29.78,10.0,South,18.4,34.5,N/A,,Scattered Clouds,170,2013-05-28 06:53:00
2:53 AM,75.0,64.9,71,29.78,10.0,South,20.7,-,N/A,,Scattered Clouds,180,2013-05-28 07:53:00
3:53 AM,73.0,66.0,79,29.78,10.0,South,21.9,29.9,N/A,,Scattered Clouds,180,2013-05-28 08:53:00
4:13 AM,73.0,66.0,79,29.80,10.0,South,21.9,28.8,N/A,,Mostly Cloudy,180,2013-05-28 09:13:00
4:41 AM,73.0,66.0,79,29.80,10.0,South,17.3,25.3,N/A,,Mostly Cloudy,170,2013-05-28 09:41:00
4:53 AM,73.0,66.0,79,29.78,10.0,South,19.6,31.1,N/A,,Mostly Cloudy,170,2013-05-28 09:53:00
5:16 AM,72.0,66.0,81,29.82,10.0,South,17.3,26.5,N/A,,Mostly Cloudy,170,2013-05-28 10:16:00
5:53 AM,73.0,66.0,79,29.80,10.0,South,19.6,27.6,N/A,,Mostly Cloudy,180,2013-05-28 10:53:00
6:53 AM,73.0,66.0,79,29.82,10.0,South,16.1,-,N/A,,Overcast,180,2013-05-28 11:53:00
7:53 AM,73.9,66.9,79,29.83,10.0,South,12.7,-,N/A,,Mostly Cloudy,170,2013-05-28 12:53:00
8:53 AM,75.0,66.9,76,29.84,10.0,South,18.4,29.9,N/A,,Mostly Cloudy,180,2013-05-28 13:53:00
9:53 AM,78.1,66.9,68,29.85,10.0,South,24.2,32.2,N/A,,Mostly Cloudy,180,2013-05-28 14:53:00
10:32 AM,79.0,66.9,66,29.87,10.0,South,23.0,29.9,N/A,,Mostly Cloudy,180,2013-05-28 15:32:00
10:53 AM,80.1,66.0,62,29.85,10.0,South,20.7,29.9,N/A,,Mostly Cloudy,180,2013-05-28 15:53:00
11:53 AM,81.0,66.0,60,29.86,10.0,South,21.9,29.9,N/A,,Overcast,180,2013-05-28 16:53:00
12:53 PM,82.0,64.0,54,29.85,10.0,South,21.9,32.2,N/A,,Overcast,170,2013-05-28 17:53:00
1:53 PM,82.9,64.0,53,29.82,10.0,South,17.3,28.8,N/A,,Overcast,170,2013-05-28 18:53:00
2:53 PM,82.9,64.0,53,29.81,10.0,South,21.9,26.5,N/A,,Overcast,180,2013-05-28 19:53:00
3:53 PM,84.9,64.9,51,29.81,10.0,South,20.7,-,N/A,,Overcast,180,2013-05-28 20:53:00
4:53 PM,82.9,64.9,54,29.78,10.0,South,19.6,26.5,N/A,,Overcast,170,2013-05-28 21:53:00
5:53 PM,84.0,64.0,51,29.75,10.0,SSE,23.0,32.2,N/A,,Overcast,160,2013-05-28 22:53:00
6:53 PM,84.0,64.9,53,29.75,10.0,SSE,13.8,23.0,N/A,,Overcast,150,2013-05-28 23:53:00
7:53 PM,82.0,64.0,54,29.75,10.0,SSE,10.4,20.7,N/A,,Mostly Cloudy,150,2013-05-29 00:53:00
8:53 PM,79.0,64.9,62,29.76,10.0,SSE,9.2,-,N/A,,Overcast,150,2013-05-29 01:53:00
9:53 PM,80.1,64.9,60,29.76,10.0,SSE,12.7,-,N/A,,Overcast,150,2013-05-29 02:53:00
10:53 PM,80.1,64.9,60,29.73,10.0,SSE,26.5,33.4,N/A,,Overcast,160,2013-05-29 03:53:00
11:53 PM,78.1,68.0,71,29.67,10.0,SSE,36.8,50.6,N/A,,Overcast,160,2013-05-29 04:53:00